| time (UTC) | temp C | wind direction | speed KPH | gust KPH | rain 1hr cm | rain 24hr cm | rain mn cm | humidity % | barometer mb |
| 20260505221516 | 12 | 242 | 0.0 | 1.6 | 0.00 | 0.69 | 0.00 | 89 | 1011.2 |
| 20260505220013 | 12 | 252 | 0.0 | 3.2 | 0.00 | 0.69 | 0.00 | 87 | 1011.2 |
| 20260505214513 | 12 | 123 | 0.0 | 6.4 | 0.00 | 0.69 | 0.69 | 86 | 1011.4 |
| 20260505213012 | 12 | 256 | 0.0 | 4.8 | 0.00 | 0.69 | 0.69 | 86 | 1011.5 |
| 20260505211512 | 12 | 78 | 0.0 | 6.4 | 0.00 | 0.69 | 0.69 | 87 | 1011.5 |
| 20260505210010 | 12 | 94 | 1.6 | 8.0 | 0.00 | 0.69 | 0.69 | 88 | 1011.5 |
| 20260505204510 | 12 | 245 | 0.0 | 4.8 | 0.00 | 0.69 | 0.69 | 91 | 1011.5 |
| 20260505203009 | 12 | 257 | 0.0 | 0.0 | 0.00 | 0.69 | 0.69 | 89 | 1011.6 |
| 20260505201510 | 12 | 251 | 0.0 | 3.2 | 0.00 | 0.69 | 0.69 | 88 | 1011.5 |
| 20260505200015 | 13 | 246 | 0.0 | 3.2 | 0.00 | 0.69 | 0.69 | 88 | 1011.3 |
| 20260505194509 | 13 | 250 | 0.0 | 4.8 | 0.00 | 0.69 | 0.69 | 88 | 1011.2 |
| 20260505193008 | 13 | 258 | 0.0 | 3.2 | 0.00 | 0.69 | 0.69 | 88 | 1011.1 |
| 20260505191507 | 12 | 262 | 0.0 | 4.8 | 0.00 | 0.69 | 0.69 | 90 | 1010.9 |
| 20260505190006 | 12 | 72 | 0.0 | 3.2 | 0.00 | 0.69 | 0.69 | 90 | 1010.9 |
| 20260505184505 | 13 | 82 | 0.0 | 3.2 | 0.03 | 0.69 | 0.69 | 89 | 1010.8 |
| 20260505183005 | 13 | 248 | 1.6 | 3.2 | 0.05 | 0.69 | 0.69 | 88 | 1010.8 |
| 20260505181504 | 13 | 91 | 0.0 | 6.4 | 0.33 | 0.69 | 0.69 | 88 | 1010.5 |
| 20260505180008 | 13 | 139 | 0.0 | 6.4 | 0.38 | 0.69 | 0.69 | 88 | 1010.6 |
| 20260505174503 | 14 | 245 | 4.8 | 16.1 | 0.36 | 0.69 | 0.66 | 88 | 1010.6 |
| 20260505173003 | 15 | 246 | 1.6 | 8.0 | 0.33 | 0.64 | 0.61 | 90 | 1010.6 |
| 20260505171505 | 16 | 248 | 1.6 | 4.8 | 0.05 | 0.36 | 0.33 | 85 | 1010.5 |
| 20260505170005 | 16 | 252 | 1.6 | 4.8 | 0.00 | 0.33 | 0.30 | 82 | 1010.3 |
| 20260505164501 | 16 | 247 | 1.6 | 4.8 | 0.00 | 0.38 | 0.30 | 81 | 1010.2 |
| 20260505163001 | 16 | 252 | 0.0 | 6.4 | 0.00 | 0.38 | 0.30 | 80 | 1010.4 |
| 20260505161501 | 16 | 237 | 1.6 | 6.4 | 0.00 | 0.38 | 0.30 | 82 | 1010.4 |
| 20260505153103 | 15 | 254 | 0.0 | 4.8 | 0.00 | 0.38 | 0.30 | 83 | 1010.4 |
| 20260505151558 | 16 | 259 | 0.0 | 4.8 | 0.00 | 0.38 | 0.30 | 85 | 1010.5 |
| 20260505130107 | 19 | 97 | 0.0 | 6.4 | 0.00 | 0.10 | 0.03 | 66 | 1009.9 |
| 20260505124553 | 19 | 245 | 1.6 | 6.4 | 0.00 | 0.10 | 0.03 | 68 | 1010.2 |
| 20260505123047 | 20 | 240 | 0.0 | 1.6 | 0.00 | 0.10 | 0.03 | 72 | 1010.3 |
| 20260505121543 | 18 | 268 | 0.0 | 1.6 | 0.00 | 0.10 | 0.03 | 74 | 1010.4 |
| 20260505120038 | 18 | 245 | 0.0 | 3.2 | 0.00 | 0.10 | 0.03 | 72 | 1010.5 |
| 20260505114534 | 17 | 240 | 0.0 | 3.2 | 0.00 | 0.10 | 0.03 | 75 | 1010.6 |
| 20260505113030 | 16 | 251 | 0.0 | 1.6 | 0.00 | 0.10 | 0.03 | 85 | 1010.8 |
| 20260505111535 | 15 | 243 | 0.0 | 3.2 | 0.00 | 0.10 | 0.03 | 84 | 1011.2 |
| 20260505101522 | 15 | 254 | 1.6 | 4.8 | 0.00 | 0.10 | 0.03 | 85 | 1011.4 |
| 20260505100027 | 15 | 239 | 1.6 | 4.8 | 0.00 | 0.10 | 0.03 | 87 | 1011.3 |
| 20260505094521 | 15 | 238 | 0.0 | 3.2 | 0.00 | 0.10 | 0.03 | 87 | 1011.2 |
| 20260505093021 | 15 | 235 | 0.0 | 3.2 | 0.00 | 0.10 | 0.03 | 85 | 1011.2 |
| 20260505091520 | 15 | 245 | 0.0 | 1.6 | 0.00 | 0.10 | 0.03 | 85 | 1011.4 |
| 20260505090017 | 14 | 243 | 0.0 | 1.6 | 0.03 | 0.10 | 0.03 | 87 | 1011.2 |
| 20260505084519 | 14 | 245 | 0.0 | 1.6 | 0.03 | 0.10 | 0.03 | 85 | 1011.2 |
| 20260505083014 | 13 | 251 | 0.0 | 4.8 | 0.03 | 0.10 | 0.03 | 90 | 1011.5 |
| 20260505081510 | 13 | 101 | 0.0 | 6.4 | 0.03 | 0.10 | 0.03 | 91 | 1011.7 |
| 20260505080007 | 13 | 252 | 1.6 | 8.0 | 0.00 | 0.08 | 0.00 | 91 | 1011.7 |
| 20260505074506 | 13 | 256 | 1.6 | 8.0 | 0.00 | 0.08 | 0.00 | 90 | 1011.9 |
| 20260505073104 | 13 | 226 | 4.8 | 8.0 | 0.00 | 0.08 | 0.00 | 89 | 1012.0 |
| 20260505071513 | 13 | 243 | 1.6 | 6.4 | 0.00 | 0.08 | 0.00 | 90 | 1012.0 |
| 20260505070001 | 13 | 251 | 3.2 | 6.4 | 0.00 | 0.08 | 0.00 | 91 | 1012.0 |
| 20260505064609 | 12 | 245 | 0.0 | 4.8 | 0.00 | 0.08 | 0.00 | 93 | 1012.1 |
| 20260505063058 | 12 | 247 | 0.0 | 3.2 | 0.00 | 0.08 | 0.00 | 93 | 1012.3 |
| 20260505061601 | 12 | 250 | 0.0 | 0.0 | 0.00 | 0.08 | 0.00 | 93 | 1012.3 |
| 20260505060057 | 12 | 249 | 0.0 | 1.6 | 0.00 | 0.08 | 0.00 | 94 | 1012.4 |
| 20260505054559 | 12 | 246 | 0.0 | 3.2 | 0.00 | 0.08 | 0.00 | 94 | 1012.3 |
| 20260505053104 | 11 | 257 | 0.0 | 3.2 | 0.00 | 0.08 | 0.00 | 95 | 1012.3 |
| 20260505051556 | 11 | 255 | 0.0 | 1.6 | 0.00 | 0.08 | 0.00 | 95 | 1012.4 |
| 20260505041556 | 11 | 252 | 0.0 | 0.0 | 0.00 | 0.08 | 0.00 | 93 | 1012.1 |
| 20260505040053 | 12 | 253 | 0.0 | 0.0 | 0.00 | 0.08 | 0.00 | 93 | 1012.2 |
| 20260505034551 | 12 | 253 | 0.0 | 1.6 | 0.00 | 0.08 | 0.00 | 92 | 1012.2 |
| 20260505033049 | 12 | 254 | 0.0 | 1.6 | 0.00 | 0.08 | 0.00 | 93 | 1012.3 |
| 20260505031549 | 12 | 100 | 0.0 | 0.0 | 0.00 | 0.08 | 0.00 | 93 | 1012.3 |
| 20260505030048 | 12 | 101 | 0.0 | 0.0 | 0.00 | 0.08 | 0.00 | 92 | 1012.3 |
| 20260505024547 | 12 | 100 | 0.0 | 1.6 | 0.00 | 0.08 | 0.00 | 92 | 1012.3 |
| 20260505023051 | 11 | 118 | 0.0 | 0.0 | 0.00 | 0.08 | 0.00 | 93 | 1012.4 |
| 20260505021545 | 11 | 118 | 0.0 | 0.0 | 0.00 | 0.08 | 0.00 | 93 | 1012.6 |
| 20260505020043 | 11 | 118 | 0.0 | 0.0 | 0.00 | 0.08 | 0.00 | 93 | 1012.8 |
| 20260505014541 | 11 | 118 | 0.0 | 0.0 | 0.00 | 0.08 | 0.00 | 94 | 1012.9 |
| 20260505013040 | 11 | 118 | 0.0 | 0.0 | 0.00 | 0.08 | 0.00 | 94 | 1013.1 |
| 20260505011548 | 11 | 118 | 0.0 | 0.0 | 0.00 | 0.08 | 0.00 | 94 | 1013.2 |
| 20260505010038 | 11 | 118 | 0.0 | 0.0 | 0.00 | 0.08 | 0.00 | 94 | 1013.4 |
| 20260505004536 | 11 | 118 | 0.0 | 0.0 | 0.00 | 0.08 | 0.00 | 93 | 1013.4 |
| 20260505003032 | 12 | 118 | 0.0 | 0.0 | 0.00 | 0.08 | 0.00 | 93 | 1013.8 |
| 20260505001531 | 12 | 118 | 0.0 | 1.6 | 0.00 | 0.08 | 0.00 | 93 | 1014.0 |
| 20260505000029 | 12 | 120 | 0.0 | 0.0 | 0.00 | 0.08 | 0.00 | 93 | 1014.0 |
| 20260504234526 | 12 | 120 | 0.0 | 0.0 | 0.00 | 0.08 | 0.00 | 93 | 1014.1 |
| 20260504233025 | 12 | 117 | 0.0 | 1.6 | 0.00 | 0.08 | 0.00 | 92 | 1014.2 |
| 20260504231523 | 12 | 117 | 0.0 | 0.0 | 0.00 | 0.08 | 0.00 | 92 | 1014.5 |
| 20260504230022 | 12 | 79 | 0.0 | 4.8 | 0.00 | 0.08 | 0.00 | 91 | 1014.5 |
| 20260504224521 | 12 | 283 | 0.0 | 0.0 | 0.00 | 0.08 | 0.00 | 93 | 1014.6 |
| 20260504223020 | 12 | 283 | 0.0 | 0.0 | 0.00 | 0.08 | 0.00 | 93 | 1014.7 |